Weather in Welkom

South Africa     27°58′43″S   26°44′00″E
temp.,
°C
wind,
m/s
gust,
m/s
humid.,
%
clouds,
%
prec.,
mm/h
press.,
hPa
HPBL,
m
18 may, tue
tue1823:00+11se12435 0.0 102345
02:00+10e22451 0.0 102333
05:00+9ene22516 0.0 102442
08:00+10ene22465 0.0 1025103
11:00+16nne222818 0.0 1024727
14:00+20nnw34190 0.0 10211312
17:00+18nw11220 0.0 102052
20:00+15e33240 0.0 102246
19 may, wed
wed1923:00+13ne34280 0.0 102367
02:00+11nne33315 0.0 102363
05:00+10nne22298 0.0 102338
08:00+12nne35270 0.0 1024123
11:00+19n45275 0.0 1022637
14:00+23nw3422100 0.0 10171569
17:00+20ene222492 0.0 101722
20:00+17nne3429100 0.0 101958
20 may, thu
thu2023:00+16n3631100 0.0 1020138
02:00+14n3743100 0.0 1019171
05:00+13n41048100 0.0 1018214
08:00+14n41245100 0.0 1019320
11:00+21nnw61027100 0.0 1017995
14:00+25wnw81120100 0.0 10123479
17:00+23wnw7122393 0.0 10121581
20:00+19nw513315 0.0 1015615
21 may, fri
fri2123:00+17wsw410352 0.0 1017426
02:00+12sw410330 0.0 1019353
05:00+9s48520 0.0 1022296
08:00+10s25584 0.0 1023367
11:00+14sw46373 0.0 10231044
14:00+17wsw562263 0.0 10201345
17:00+16sw4625100 0.0 1021655
20:00+12ssw353496 0.0 1024167
22 may, sat
sat2223:00+10s3435100 0.0 1026105
02:00+9sse3336100 0.0 1025102
05:00+7sse23401 0.0 102687
08:00+8se23380 0.0 1028149
11:00+15e22240 0.0 1027866
14:00+18w11160 0.0 10241316
17:00+16wsw22180 0.0 1024533
20:00+12ssw23250 0.0 102752